Location: Unspecified
(0.0000°N, 0.0000°E)
Time: 01:36:42
(UTC+00:00)

Vanguard 1 Rocket - All Passes

Search period start: 20 February 2017 00:00
Search period end: 02 March 2017 00:00
Orbit: 650 x 4227 km, 34.3° (Epoch: 18 February)

Date Brightness Start Highest point End Pass type
(mag) Time Alt. Az. Time Alt. Az. Time Alt. Az.
20 Feb - 06:02:03 10° WNW 06:06:23 66° SW 06:12:17 10° SE daylight
20 Feb - 08:30:36 10° SW 08:33:41 13° SSW 08:37:28 10° S daylight
20 Feb - 11:04:24 10° S 11:06:25 10° S 11:08:35 10° SSE daylight
20 Feb - 13:28:08 10° SSW 13:43:07 26° SSE 14:02:35 10° ESE daylight
20 Feb - 15:54:51 10° SW 16:18:38 62° SE 16:42:22 10° ENE daylight
20 Feb - 18:26:19 10° WSW 18:52:25 64° NW 19:11:20 10° NE visible
20 Feb - 21:08:56 10° W 21:24:29 23° NW 21:35:13 10° NNE visible
21 Feb - 04:51:30 10° NW 04:55:45 44° NE 05:00:20 10° ESE visible
21 Feb - 07:17:38 10° WSW 07:21:17 19° SSW 07:26:10 10° SSE daylight
21 Feb - 12:17:22 10° SSW 12:26:58 17° SSE 12:39:35 10° ESE daylight
21 Feb - 14:42:27 10° SSW 15:02:41 45° SE 15:26:35 10° ENE daylight
21 Feb - 17:11:09 10° SW 17:37:07 86° NW 17:59:11 10° NE daylight
21 Feb - 19:47:53 10° W 20:10:00 37° NW 20:25:08 10° NNE visible
22 Feb - 03:41:37 10° NNW 03:44:50 17° NNE 03:47:47 10° ENE visible
22 Feb - 06:05:44 10° W 06:09:48 36° SSW 06:15:03 10° SE daylight
22 Feb - 11:09:22 10° S 11:11:13 10° SSE 11:13:12 10° SSE daylight
22 Feb - 13:30:57 10° SSW 13:46:52 31° SSE 14:08:02 10° E daylight
22 Feb - 15:57:31 10° SW 16:21:22 73° SE 16:45:45 10° ENE daylight
22 Feb - 18:29:49 10° WSW 18:55:07 54° NW 19:14:05 10° NE visible
22 Feb - 21:15:07 10° WNW 21:28:14 19° NNW 21:37:48 10° N visible
23 Feb - 04:54:33 10° NW 04:59:02 85° NE 05:03:49 10° SE visible
23 Feb - 07:23:18 10° SW 07:25:09 11° SSW 07:27:14 10° S daylight
23 Feb - 12:20:22 10° SSW 12:31:15 20° SSE 12:46:05 10° ESE daylight
23 Feb - 14:45:06 10° SW 15:05:39 54° SE 15:30:33 10° ENE daylight
23 Feb - 17:14:11 10° WSW 17:39:42 74° NW 18:02:03 10° NE daylight
23 Feb - 19:52:46 10° W 20:13:15 30° NW 20:27:48 10° NNE visible
24 Feb - 03:43:50 10° NNW 03:48:18 30° NNE 03:52:12 10° E visible
24 Feb - 06:09:56 10° W 06:13:20 21° SSW 06:17:24 10° SSE daylight
24 Feb - 11:11:53 10° S 11:15:53 11° SSE 11:20:30 10° SE daylight
24 Feb - 13:33:38 10° SSW 13:50:14 37° SE 14:12:57 10° E daylight
24 Feb - 16:00:20 10° SW 16:23:59 84° SE 16:48:52 10° NE daylight
24 Feb - 18:33:44 10° WSW 18:57:58 45° NW 19:16:45 10° NNE visible
24 Feb - 21:21:49 10° WNW 21:32:23 15° NNW 21:40:30 10° N visible
25 Feb - 02:33:33 10° N 02:36:54 15° NNE 02:39:42 10° ENE night (unlit)
25 Feb - 04:57:57 10° WNW 05:02:20 50° SW 05:06:55 10° SE visible
25 Feb - 12:23:06 10° SSW 12:35:09 24° SSE 12:52:13 10° E daylight
25 Feb - 14:47:48 10° SW 15:08:23 63° SE 15:34:08 10° ENE daylight
25 Feb - 17:17:30 10° WSW 17:42:22 63° NW 18:04:47 10° NE daylight
25 Feb - 19:58:14 10° W 20:16:51 25° NNW 20:30:31 10° NNE visible
26 Feb - 03:46:33 10° NW 03:51:42 57° NE 03:55:59 10° ESE visible
26 Feb - 06:15:15 10° SW 06:16:57 12° SSW 06:18:48 10° S daylight
26 Feb - 11:14:11 10° S 11:20:17 13° SSE 11:27:57 10° SE daylight
26 Feb - 13:36:18 10° SSW 13:53:16 45° SE 14:17:18 10° ENE daylight
26 Feb - 16:03:18 10° SW 16:26:35 84° NW 16:51:45 10° NE daylight
26 Feb - 18:38:07 10° W 19:01:07 38° NW 19:19:25 10° NNE visible
26 Feb - 21:28:33 10° NW 21:36:54 13° NNW 21:43:35 10° N visible
27 Feb - 02:35:23 10° NNW 02:40:37 25° NNE 02:44:30 10° E night (unlit)
27 Feb - 05:01:49 10° W 05:05:41 27° SW 05:09:36 10° SSE visible
27 Feb - 12:25:45 10° SSW 12:38:39 29° SE 12:57:44 10° E daylight
27 Feb - 14:50:36 10° SW 15:11:02 75° SE 15:37:22 10° ENE daylight
27 Feb - 17:21:08 10° WSW 17:45:12 53° NW 18:07:27 10° NE daylight
27 Feb - 20:04:15 10° WNW 20:20:53 21° NNW 20:33:25 10° NNE visible
28 Feb - 01:24:10 10° NNW 01:28:39 15° NNE 01:32:06 10° NE night (unlit)
28 Feb - 03:49:39 10° WNW 03:55:01 77° SW 03:59:23 10° SE visible
28 Feb - 11:16:28 10° S 11:24:20 16° SSE 11:34:58 10° ESE daylight
28 Feb - 13:39:01 10° SW 13:56:05 54° SE 14:21:11 10° ENE daylight
28 Feb - 16:06:30 10° WSW 16:29:16 72° NW 16:54:29 10° NE daylight
28 Feb - 18:43:00 10° W 19:04:36 32° NNW 19:22:08 10° NNE visible
28 Feb - 21:34:38 10° NW 21:41:40 13° NNW 21:47:27 10° N visible
01 Mar - 00:12:28 10° N 00:15:47 12° N 00:18:35 10° NNE night (unlit)
01 Mar - 02:37:48 10° NW 02:44:11 43° NNE 02:48:33 10° ESE night (unlit)
01 Mar - 05:06:24 10° WSW 05:09:03 15° SW 05:11:43 10° S visible
01 Mar - 12:28:23 10° SSW 12:41:49 35° SE 13:02:39 10° E daylight
01 Mar - 14:53:33 10° SW 15:13:39 87° SE 15:40:20 10° NE daylight
01 Mar - 17:25:09 10° W 17:48:17 45° NW 18:10:03 10° NE daylight
01 Mar - 20:10:35 10° WNW 20:25:18 19° NNW 20:36:37 10° NNE visible
01 Mar - 22:58:24 10° NNW 23:01:49 11° N 23:04:47 10° NNE visible
